DRAGON CRS-19 (44821 NORAD) Tracking and Keplerian Element Data

This shows tracking and keplerian element data for the satellite.

Feedback or suggestion? Click here.




ElementValue
Catalog44821
NameDRAGON CRS-19
Epoch Orbit494
Epoch Day6.55702477
Epoch Year2020
RAAN73.183
Inclination51.6453
Eccentricity0.0005159
Argument of Perigee105.4393
Mean Anonmoly49.5527
Mean Motion15.49542542
Decay Rate1.059E-05
L11 44821U 19083A 20006.55702477 .00001059 00000-0 26955-4 0 9991
L22 44821 51.6453 73.1830 0005159 105.4393 49.5527 15.49542542 4942

Live tracking and technical data element details for DRAGON CRS-19 (NORAD 44821). DRAGON CRS-19 can be tracked NOW for your location showing map with azimuth and elevation plus other details from your city location.

Track the satellite on the map from your city or location and see movement details for azimuth, elevation, latitude, longitude, range, height, and movement on the map or in text.







IsCatalogInMostPopularTable: catalog: 44821, numindb: 7
Update: records affected: 1



GetName: 44821 DRAGON CRS-19

Hit Count: updated at: Fri, 24 Jan 2020 13:27:20 GMT